SEEDS II (CO-66)

Last updated on Mon Sep 21 2026 00:03:14 GMT+0000 (Coordinated Universal Time)

1 32791U 08021J 26262.96547176 .00014057 00000+0 40691-3 0 9995 2 32791 97.7577 265.6353 0002394 30.6292 329.5090 15.35713894 1810
UTC large
Height (km)
Speed (km/s)
/
Latitude / Longitude
Inclination (degrees)
Orbital Period (minutes)
Azimuth
Elevation
Range (km)
Doppler Factor

Next 0 passes for location: London (51.5072 / 0.1276)

No passes found over London.
SEEDS II (CO-66)